Home   Weather   Jaén   Past weeks

Flag for Spain Past Weather in Jaén, Spain — Yesterday and Last 2 Weeks

Now
59 °F

Broken clouds.


Feels Like: 59 °F
Forecast: 47 / 60 °F
Wind: No wind

Location: Granada / Aeropuerto

Current Time: Dec 4, 2016 at 3:26:08 pm

Latest Report: Dec 4, 2016 at 3:00 pm


Visibility: N/A

Pressure: 29.83 "Hg (27.90 "Hg at 565m altitude)

Humidity: 72%

Dew Point: 50 °F

Location of JaénLocation

Past Weather in Jaén — Graph

°F

Jaén Temperature Yesterday

Maximum temperature yesterday: 63 °F (at 2:00 pm)
Minimum temperature yesterday: 48 °F (at 12:30 am)
Average temperature yesterday: 54 °F

High & Low Weather Summary for the Past Weeks

 TemperatureHumidityPressure
High68 °F (Nov 19, 4:00 pm)100% (Nov 20, 1:00 am)30.27 "Hg (Nov 20, 1:00 am)
Low34 °F (Nov 24, 5:00 am)40% (Nov 19, 5:00 pm)29.56 "Hg (Nov 22, 3:00 pm)
Average50 °F87%29.90 "Hg
* Reported Nov 19 2:00 pm — Dec 4 2:00 pm, Jaén, Weather by CustomWeather, © 2016

Note: Actual official high and low records may vary slightly from our data, if they occured in-between our weather recording intervals... More about our weather records

Advertising

Jaén Weather History for the Previous 24 Hours

Scroll right to see more
 ConditionsComfort  
Time TempWeatherWind HumidityBarometerVisibility
2:00 pm
Sun, Dec 4
57 °FPartly sunny.1 mph77%29.83 "HgN/A
1:30 pm57 °FPartly sunny.No wind82%29.83 "HgN/A
1:00 pm55 °FPartly sunny.No wind82%29.86 "HgN/A
12:30 pm54 °FPartly sunny.1 mph88%29.86 "HgN/A
12:00 pm54 °FPartly sunny.2 mph94%29.86 "HgN/A
11:30 am54 °FLight rain. Partly sunny.3 mph94%29.89 "Hg4 mi
11:00 am52 °FLight rain. Partly sunny.3 mph100%29.89 "Hg4 mi
10:30 am52 °FLight rain. Partly sunny.5 mph94%29.89 "Hg4 mi
10:00 am52 °FLight rain. Partly sunny.3 mph100%29.89 "Hg4 mi
9:30 am52 °FLight rain. Partly sunny.2 mph94%29.86 "Hg4 mi
9:00 am52 °FRain. Partly sunny.2 mph94%29.86 "Hg4 mi
8:49 am52 °FRain. Partly sunny.2 mph94%29.86 "Hg4 mi
8:30 am52 °FRain. Partly sunny.1 mph94%29.86 "Hg4 mi
8:00 am52 °FPassing clouds.6 mph94%29.86 "HgN/A
7:30 am54 °FLight rain. Partly cloudy.10 mph88%29.83 "HgN/A
7:00 am55 °FPartly cloudy.7 mph82%29.83 "HgN/A
6:30 am55 °FLight rain. Partly cloudy.6 mph82%29.80 "HgN/A
6:00 am55 °FPartly cloudy.No wind82%29.80 "HgN/A
5:30 am55 °FPassing clouds.No wind82%29.80 "HgN/A
5:00 am55 °FPassing clouds.2 mph82%29.80 "HgN/A
4:30 am55 °FPassing clouds.7 mph82%29.80 "HgN/A
3:30 am54 °FPartly cloudy.1 mph94%29.80 "HgN/A
3:00 am54 °FPassing clouds.3 mph94%29.80 "HgN/A
2:30 am55 °FPassing clouds.2 mph82%29.80 "HgN/A
2:00 am55 °FPartly cloudy.8 mph82%29.80 "HgN/A
1:30 am57 °FPassing clouds.7 mph77%29.80 "HgN/A
1:00 am57 °FPartly cloudy.10 mph77%29.80 "HgN/A
12:30 am55 °FPassing clouds.3 mph88%29.83 "HgN/A
12:00 am55 °FPassing clouds.3 mph88%29.83 "HgN/A
11:30 pm
Sat, Dec 3
55 °FOvercast.5 mph88%29.83 "HgN/A
11:00 pm55 °FPassing clouds.3 mph88%29.83 "HgN/A
10:30 pm55 °FPartly cloudy.1 mph94%29.83 "HgN/A
10:00 pm55 °FPartly cloudy.2 mph94%29.86 "HgN/A
9:30 pm55 °FPartly cloudy.7 mph88%29.83 "HgN/A
9:00 pm55 °FPartly cloudy.3 mph88%29.83 "HgN/A
8:30 pm55 °FPartly cloudy.9 mph88%29.86 "HgN/A
8:00 pm55 °FLight rain. Partly cloudy.12 mph88%29.83 "HgN/A
7:30 pm55 °FLight rain. Partly cloudy.3 mph88%29.83 "HgN/A
7:00 pm57 °FRain. Partly cloudy.8 mph82%29.83 "HgN/A
6:30 pm57 °FRain. Partly cloudy.6 mph82%29.83 "HgN/A
6:00 pm57 °FPartly cloudy.8 mph82%29.83 "HgN/A
5:30 pm57 °FBroken clouds.14 mph77%29.83 "HgN/A
5:00 pm59 °FBroken clouds.9 mph77%29.83 "HgN/A
4:30 pm61 °FBroken clouds.13 mph68%29.83 "HgN/A
4:00 pm61 °FBroken clouds.12 mph68%29.83 "HgN/A
3:30 pm61 °FBroken clouds.12 mph68%29.83 "HgN/A
3:00 pm63 °FBroken clouds.9 mph68%29.83 "HgN/A
Weather by CustomWeather, © 2016

See weather overviewHow to use our weather pages